SWA3056 KSNA-KSJC

Flight info

Callsign SWA3056
Flight time 0h 56m
Altitude 32000
Route HHERO3 IKAYE TESEA SCTRR TROXX SILCN6
Aircraft B737/M-SADE2E3GIJ4RWZ/LB1D1

Departure

Time 2026-05-04 03:58
Airport John Wayne Orange County International Airport (KSNA)

Arrival

Time 2026-05-04 04:55
Airport Norman Y. Mineta San Jose International Airport (KSJC)
Time Latitude Longitude Altitude Speed Heading
2026-05-04 03:21 33.67648 -117.86419 54 ft 0 kts 118°
2026-05-04 03:47 33.67657 -117.86441 47 ft 4 kts 111°
2026-05-04 03:47 33.67664 -117.86472 50 ft 4 kts 85°
2026-05-04 03:48 33.67655 -117.86495 48 ft 2 kts 28°
2026-05-04 03:48 33.67654 -117.86496 48 ft 0 kts 28°
2026-05-04 03:55 33.67669 -117.86486 51 ft 10 kts 28°
2026-05-04 03:55 33.67762 -117.86427 52 ft 17 kts 28°
2026-05-04 03:55 33.67865 -117.86362 52 ft 17 kts 28°
2026-05-04 03:55 33.67968 -117.86297 50 ft 16 kts 28°
2026-05-04 03:56 33.68050 -117.86279 52 ft 11 kts 322°
2026-05-04 03:56 33.68087 -117.86358 52 ft 11 kts 298°
2026-05-04 03:56 33.68118 -117.86426 54 ft 0 kts 297°
2026-05-04 03:57 33.68128 -117.86450 52 ft 8 kts 297°
2026-05-04 03:58 33.67821 -117.86728 50 ft 98 kts 208°
2026-05-04 03:58 33.66983 -117.87261 254 ft 161 kts 208°
2026-05-04 03:58 33.65927 -117.87903 1188 ft 181 kts 208°
2026-05-04 03:59 33.64736 -117.88619 2184 ft 200 kts 210°
2026-05-04 03:59 33.63338 -117.89238 2826 ft 231 kts 187°
2026-05-04 03:59 33.61707 -117.89378 3880 ft 241 kts 187°
2026-05-04 03:59 33.59963 -117.89580 4649 ft 259 kts 187°
2026-05-04 04:00 33.58156 -117.89825 4963 ft 261 kts 192°
2026-05-04 04:00 33.56501 -117.90675 5031 ft 260 kts 217°
2026-05-04 04:00 33.55110 -117.92115 5612 ft 270 kts 225°
2026-05-04 04:00 33.53768 -117.93677 7074 ft 265 kts 226°
2026-05-04 04:01 33.52432 -117.95230 7849 ft 269 kts 225°
2026-05-04 04:01 33.51093 -117.96762 8020 ft 267 kts 225°
2026-05-04 04:01 33.49727 -117.98311 8025 ft 271 kts 224°
2026-05-04 04:01 33.48375 -117.99846 8023 ft 270 kts 226°
2026-05-04 04:02 33.47266 -118.01659 8129 ft 273 kts 240°
2026-05-04 04:02 33.46329 -118.03633 9320 ft 269 kts 240°
2026-05-04 04:02 33.45376 -118.05629 10315 ft 273 kts 239°
2026-05-04 04:02 33.44436 -118.07570 10956 ft 273 kts 239°
2026-05-04 04:03 33.43475 -118.09534 11577 ft 274 kts 239°
2026-05-04 04:03 33.42471 -118.11577 11954 ft 301 kts 239°
2026-05-04 04:03 33.41562 -118.13945 12546 ft 324 kts 253°
2026-05-04 04:03 33.41353 -118.16668 13595 ft 336 kts 273°
2026-05-04 04:04 33.41813 -118.19425 14752 ft 337 kts 279°
2026-05-04 04:04 33.42376 -118.22134 15734 ft 335 kts 279°
2026-05-04 04:04 33.42928 -118.24821 16010 ft 331 kts 278°
2026-05-04 04:04 33.43464 -118.27530 16027 ft 337 kts 278°
2026-05-04 04:05 33.44053 -118.30250 16029 ft 339 kts 285°
2026-05-04 04:05 33.45077 -118.32820 16046 ft 343 kts 292°
2026-05-04 04:05 33.46209 -118.35342 16032 ft 344 kts 292°
2026-05-04 04:05 33.47349 -118.37869 16035 ft 344 kts 292°
2026-05-04 04:06 33.48475 -118.40396 16041 ft 344 kts 292°
2026-05-04 04:06 33.49591 -118.42935 16039 ft 344 kts 292°
2026-05-04 04:06 33.50704 -118.45488 16108 ft 349 kts 292°
2026-05-04 04:06 33.51822 -118.48056 17025 ft 347 kts 291°
2026-05-04 04:07 33.53072 -118.50490 17853 ft 348 kts 298°
2026-05-04 04:07 33.54552 -118.52815 18810 ft 347 kts 300°
2026-05-04 04:07 33.56067 -118.55081 19689 ft 348 kts 300°
2026-05-04 04:07 33.57581 -118.57350 20589 ft 349 kts 300°
2026-05-04 04:08 33.59063 -118.59604 21506 ft 349 kts 299°
2026-05-04 04:08 33.60576 -118.61944 21992 ft 362 kts 299°
2026-05-04 04:08 33.62135 -118.64376 22514 ft 372 kts 299°
2026-05-04 04:08 33.63722 -118.66854 23220 ft 376 kts 299°
2026-05-04 04:09 33.65320 -118.69344 23946 ft 379 kts 300°
2026-05-04 04:09 33.67223 -118.71621 24601 ft 397 kts 314°
2026-05-04 04:09 33.69517 -118.73285 25230 ft 409 kts 321°
2026-05-04 04:09 33.72077 -118.74879 25839 ft 414 kts 323°
2026-05-04 04:10 33.74670 -118.76435 26403 ft 418 kts 323°
2026-05-04 04:10 33.77284 -118.77999 26976 ft 421 kts 322°
2026-05-04 04:10 33.79907 -118.79584 27532 ft 423 kts 322°
2026-05-04 04:10 33.82539 -118.81192 28084 ft 426 kts 322°
2026-05-04 04:11 33.85183 -118.82824 28609 ft 428 kts 321°
2026-05-04 04:11 33.87839 -118.84473 29116 ft 431 kts 321°
2026-05-04 04:11 33.90510 -118.86136 29628 ft 434 kts 321°
2026-05-04 04:11 33.93188 -118.87804 30247 ft 433 kts 321°
2026-05-04 04:12 33.95848 -118.89457 30961 ft 427 kts 320°
2026-05-04 04:12 33.98465 -118.91082 31623 ft 423 kts 319°
2026-05-04 04:12 34.01071 -118.92709 31969 ft 420 kts 318°
2026-05-04 04:12 34.03665 -118.94336 32011 ft 422 kts 318°
2026-05-04 04:13 34.08862 -118.97591 32038 ft 419 kts 318°
2026-05-04 04:13 34.13965 -119.00842 32032 ft 410 kts 314°
2026-05-04 04:14 34.16088 -119.02955 32041 ft 387 kts 302°
2026-05-04 04:14 34.17982 -119.05269 32029 ft 388 kts 302°
2026-05-04 04:14 34.21810 -119.09906 32033 ft 391 kts 302°
2026-05-04 04:15 34.25680 -119.14552 32031 ft 393 kts 302°
2026-05-04 04:15 34.29574 -119.19208 32021 ft 394 kts 302°
2026-05-04 04:16 34.33477 -119.23873 32025 ft 395 kts 302°
2026-05-04 04:16 34.37387 -119.28555 32019 ft 395 kts 303°
2026-05-04 04:17 34.41301 -119.33248 32019 ft 396 kts 303°
2026-05-04 04:17 34.45216 -119.37949 32012 ft 396 kts 303°
2026-05-04 04:18 34.49135 -119.42662 31982 ft 397 kts 303°
2026-05-04 04:18 34.53058 -119.47388 32015 ft 398 kts 303°
2026-05-04 04:19 34.56983 -119.52123 31995 ft 398 kts 303°
2026-05-04 04:19 34.60885 -119.56835 31999 ft 399 kts 303°
2026-05-04 04:20 34.64822 -119.61595 31996 ft 399 kts 303°
2026-05-04 04:20 34.68751 -119.66354 32009 ft 399 kts 303°
2026-05-04 04:21 34.72681 -119.71120 32022 ft 399 kts 303°
2026-05-04 04:21 34.76606 -119.75884 32028 ft 398 kts 303°
2026-05-04 04:22 34.80538 -119.80671 32031 ft 400 kts 303°
2026-05-04 04:22 34.84460 -119.85451 32035 ft 401 kts 303°
2026-05-04 04:23 34.88413 -119.90272 32022 ft 403 kts 303°
2026-05-04 04:23 34.92375 -119.95110 32031 ft 403 kts 304°
2026-05-04 04:24 34.96336 -119.99955 32035 ft 403 kts 304°
2026-05-04 04:24 35.00292 -120.04802 32034 ft 403 kts 304°
2026-05-04 04:25 35.04243 -120.09649 32039 ft 402 kts 304°
2026-05-04 04:25 35.08193 -120.14504 32035 ft 404 kts 304°
2026-05-04 04:26 35.12163 -120.19392 32050 ft 406 kts 304°
2026-05-04 04:26 35.16151 -120.24305 32033 ft 409 kts 304°
2026-05-04 04:27 35.20599 -120.28823 32062 ft 421 kts 313°
2026-05-04 04:27 35.25329 -120.33087 32052 ft 422 kts 313°
2026-05-04 04:28 35.30017 -120.37334 32049 ft 422 kts 313°
2026-05-04 04:28 35.34715 -120.41633 32049 ft 422 kts 313°
2026-05-04 04:29 35.39419 -120.45957 32050 ft 422 kts 313°
2026-05-04 04:29 35.43325 -120.49553 32043 ft 423 kts 313°
2026-05-04 04:30 35.48028 -120.53887 32063 ft 423 kts 313°
2026-05-04 04:30 35.52746 -120.58229 32072 ft 425 kts 314°
2026-05-04 04:31 35.57717 -120.62278 32080 ft 431 kts 318°
2026-05-04 04:31 35.62817 -120.66190 32074 ft 432 kts 318°
2026-05-04 04:32 35.67878 -120.70110 32016 ft 433 kts 318°
2026-05-04 04:32 35.70425 -120.72106 31544 ft 435 kts 318°
2026-05-04 04:32 35.72969 -120.74105 31176 ft 435 kts 319°
2026-05-04 04:33 35.75525 -120.76120 30825 ft 438 kts 319°
2026-05-04 04:33 35.78103 -120.78155 30471 ft 441 kts 319°
2026-05-04 04:33 35.80694 -120.80202 30109 ft 443 kts 319°
2026-05-04 04:33 35.83300 -120.82259 29691 ft 445 kts 319°
2026-05-04 04:34 35.85918 -120.84328 29282 ft 447 kts 320°
2026-05-04 04:34 35.88543 -120.86402 28867 ft 448 kts 320°
2026-05-04 04:34 35.91137 -120.88454 28466 ft 449 kts 320°
2026-05-04 04:34 35.93769 -120.90538 28064 ft 450 kts 321°
2026-05-04 04:35 35.96409 -120.92631 27667 ft 451 kts 321°
2026-05-04 04:35 35.99053 -120.94728 27295 ft 452 kts 321°
2026-05-04 04:35 36.01686 -120.96858 26902 ft 452 kts 319°
2026-05-04 04:35 36.04226 -120.99152 26527 ft 452 kts 317°
2026-05-04 04:36 36.06719 -121.01546 26102 ft 451 kts 316°
2026-05-04 04:36 36.09160 -121.03930 25599 ft 441 kts 317°
2026-05-04 04:36 36.11546 -121.06254 25118 ft 433 kts 317°
2026-05-04 04:36 36.13912 -121.08543 24648 ft 430 kts 318°
2026-05-04 04:37 36.20991 -121.15325 23226 ft 430 kts 319°
2026-05-04 04:37 36.23357 -121.17584 22683 ft 428 kts 320°
2026-05-04 04:38 36.25708 -121.19828 22152 ft 426 kts 320°
2026-05-04 04:38 36.28048 -121.22065 21643 ft 423 kts 320°
2026-05-04 04:38 36.30374 -121.24292 21124 ft 420 kts 320°
2026-05-04 04:38 36.32672 -121.26492 20621 ft 414 kts 320°
2026-05-04 04:39 36.34924 -121.28650 20118 ft 404 kts 320°
2026-05-04 04:39 36.37126 -121.30764 19644 ft 395 kts 320°
2026-05-04 04:39 36.39282 -121.32840 19156 ft 389 kts 320°
2026-05-04 04:39 36.41406 -121.34889 18687 ft 384 kts 320°
2026-05-04 04:40 36.43510 -121.36921 18208 ft 382 kts 320°
2026-05-04 04:40 36.45604 -121.38943 17683 ft 380 kts 320°
2026-05-04 04:40 36.47691 -121.40959 17157 ft 378 kts 320°
2026-05-04 04:40 36.49795 -121.42911 16630 ft 378 kts 326°
2026-05-04 04:41 36.52200 -121.44232 16145 ft 378 kts 340°
2026-05-04 04:41 36.54627 -121.45235 15598 ft 366 kts 341°
2026-05-04 04:41 36.57007 -121.46178 15047 ft 353 kts 341°
2026-05-04 04:41 36.59309 -121.47101 14514 ft 342 kts 341°
2026-05-04 04:42 36.61546 -121.48016 13993 ft 335 kts 341°
2026-05-04 04:42 36.63739 -121.48929 13435 ft 331 kts 340°
2026-05-04 04:42 36.65910 -121.49842 12872 ft 329 kts 340°
2026-05-04 04:42 36.68077 -121.50758 12306 ft 328 kts 340°
2026-05-04 04:43 36.70234 -121.51670 11763 ft 326 kts 340°
2026-05-04 04:43 36.72377 -121.52578 11222 ft 324 kts 341°
2026-05-04 04:43 36.74509 -121.53481 10718 ft 322 kts 341°
2026-05-04 04:43 36.76603 -121.54369 10275 ft 321 kts 341°
2026-05-04 04:44 36.78705 -121.55262 9933 ft 318 kts 341°
2026-05-04 04:44 36.80800 -121.56153 9571 ft 317 kts 341°
2026-05-04 04:44 36.82883 -121.57038 9238 ft 314 kts 341°
2026-05-04 04:44 36.84946 -121.57916 8869 ft 313 kts 341°
2026-05-04 04:45 36.86992 -121.58787 8625 ft 308 kts 341°
2026-05-04 04:45 36.89011 -121.59647 8474 ft 304 kts 341°
2026-05-04 04:45 36.91005 -121.60497 8288 ft 302 kts 341°
2026-05-04 04:47 37.03033 -121.65604 6720 ft 286 kts 341°
2026-05-04 04:47 37.04888 -121.66392 6325 ft 277 kts 341°
2026-05-04 04:47 37.06666 -121.67148 5919 ft 269 kts 341°
2026-05-04 04:47 37.08426 -121.67898 5511 ft 265 kts 341°
2026-05-04 04:48 37.10155 -121.68634 5120 ft 262 kts 341°
2026-05-04 04:49 37.16945 -121.71824 3997 ft 248 kts 320°
2026-05-04 04:49 37.18195 -121.73187 4018 ft 228 kts 317°
2026-05-04 04:49 37.19351 -121.74464 3997 ft 218 kts 317°
2026-05-04 04:49 37.20494 -121.75700 3954 ft 218 kts 320°
2026-05-04 04:50 37.21664 -121.76908 3746 ft 215 kts 319°
2026-05-04 04:50 37.22775 -121.78103 3489 ft 206 kts 318°
2026-05-04 04:50 37.23822 -121.79253 3217 ft 199 kts 318°
2026-05-04 04:50 37.24844 -121.80383 2950 ft 191 kts 318°
2026-05-04 04:51 37.25802 -121.81440 2707 ft 176 kts 318°
2026-05-04 04:51 37.26685 -121.82414 2473 ft 162 kts 318°
2026-05-04 04:51 37.27508 -121.83322 2250 ft 153 kts 318°
2026-05-04 04:51 37.28301 -121.84197 2047 ft 151 kts 317°
2026-05-04 04:52 37.29099 -121.85077 1840 ft 152 kts 317°
2026-05-04 04:52 37.29863 -121.85920 1648 ft 140 kts 317°
2026-05-04 04:52 37.30587 -121.86717 1448 ft 138 kts 316°
2026-05-04 04:52 37.31312 -121.87517 1219 ft 139 kts 316°
2026-05-04 04:53 37.32023 -121.88310 1037 ft 134 kts 315°
2026-05-04 04:53 37.32715 -121.89087 838 ft 135 kts 315°
2026-05-04 04:53 37.33411 -121.89863 651 ft 135 kts 316°
2026-05-04 04:53 37.34112 -121.90628 482 ft 135 kts 314°
2026-05-04 04:54 37.34813 -121.91400 313 ft 134 kts 316°
2026-05-04 04:54 37.35517 -121.92168 121 ft 133 kts 315°
2026-05-04 04:54 37.36191 -121.92906 60 ft 111 kts 319°
2026-05-04 04:54 37.36659 -121.93421 48 ft 69 kts 320°
2026-05-04 04:55 37.36866 -121.93583 53 ft 27 kts
2026-05-04 04:55 37.36975 -121.93487 49 ft 17 kts 50°
2026-05-04 04:55 37.37037 -121.93396 50 ft 13 kts 49°
2026-05-04 04:55 37.37079 -121.93306 49 ft 5 kts 99°
2026-05-04 04:56 37.37053 -121.93272 48 ft 7 kts 140°
2026-05-04 04:56 37.37001 -121.93216 47 ft 13 kts 139°
2026-05-04 04:56 37.36918 -121.93125 48 ft 17 kts 139°
2026-05-04 04:56 37.36830 -121.93027 49 ft 17 kts 139°
2026-05-04 04:57 37.36745 -121.92933 50 ft 16 kts 138°
2026-05-04 04:57 37.36681 -121.92855 51 ft 8 kts 109°
2026-05-04 04:57 37.36703 -121.92793 51 ft 6 kts 49°
2026-05-04 04:57 37.36711 -121.92781 52 ft 0 kts 49°